Theta_e
344 339 342 345 341 340 341 341 341 341 343 341 334 332 329 321 321 325 331 332 329 328 326 325 326 329 330 330 331 332 334 336 338 338 338 338 337 337 337 338 340 340 338 337 339 340 340 340 339 337 337 336 334 332 330 330 332 331 330 331 328 326 331 334 334 334 333 331 331 331 332 331 331 331 330 331 332 333 335 335 335 335 336 336 336
344 343 345 345 344 343 343 343 341 342 343 339 334 332 326 320 323 329 332 330 329 328 325 324 327 330 331 332 333 333 334 336 339 340 341 340 340 340 340 340 340 340 338 337 339 340 339 340 340 339 337 336 332 328 328 330 332 331 329 328 326 329 333 333 333 334 333 333 331 331 331 331 330 330 329 330 332 333 334 335 335 335 336 335 335
340 344 346 346 346 344 343 343 342 343 343 338 333 331 324 321 327 331 332 330 330 328 325 326 329 332 332 334 334 334 333 334 338 341 341 342 343 343 342 342 341 340 338 337 339 339 338 339 340 338 336 333 329 328 330 332 333 332 330 328 329 333 334 332 331 330 330 332 331 329 330 331 330 330 329 330 331 332 334 334 335 335 335 335 334
336 344 346 347 347 344 343 343 343 343 342 336 332 329 323 323 329 332 332 331 333 330 327 328 330 333 334 334 335 335 335 335 338 340 341 341 342 343 343 343 342 340 338 338 338 339 339 339 338 337 336 331 329 330 331 332 333 332 332 332 332 335 335 333 332 331 330 331 331 326 327 330 330 330 329 329 330 331 333 334 334 334 334 335 334
337 344 347 348 348 346 344 343 343 343 341 335 332 328 322 325 330 332 331 332 334 331 329 329 331 333 334 334 335 337 336 338 339 340 341 341 342 343 343 343 341 339 339 338 338 338 337 337 337 337 336 333 333 332 331 332 332 332 333 333 334 336 336 335 335 335 333 332 332 326 325 329 329 329 329 328 329 329 330 332 333 333 333 334 334
338 344 346 347 347 346 344 343 342 342 339 334 332 327 323 327 331 332 331 333 335 333 330 330 332 333 334 335 336 338 338 340 341 341 341 341 342 342 342 342 341 340 340 340 338 338 336 335 336 336 334 332 333 331 330 331 332 332 333 333 334 336 337 337 337 337 335 332 331 328 327 329 329 330 329 329 328 328 328 330 331 331 333 333 333
337 343 345 346 347 346 344 342 341 341 337 334 332 325 324 328 332 332 331 334 336 335 333 330 332 333 335 336 337 339 340 341 342 342 342 341 342 341 341 341 340 340 340 340 339 338 337 335 333 333 331 330 331 331 331 332 332 333 334 334 334 335 336 337 337 338 336 331 329 328 328 330 329 330 330 330 329 329 328 329 329 329 332 333 333
338 342 344 345 346 345 343 341 341 339 336 334 331 326 325 328 332 332 332 335 336 337 335 333 331 332 334 335 337 339 340 341 342 342 342 342 341 341 340 340 339 340 340 340 339 338 337 334 332 329 328 330 331 332 332 333 333 333 334 334 334 334 334 335 335 336 334 330 330 328 327 328 329 331 331 331 330 329 328 328 328 329 332 333 332
339 341 341 344 346 345 343 341 340 338 336 334 330 326 325 328 332 332 333 336 338 337 336 335 332 332 333 335 338 340 340 340 341 341 341 341 340 340 339 339 339 340 340 339 339 338 338 335 330 326 326 329 331 332 333 333 334 333 333 334 334 334 335 335 336 336 333 330 330 330 328 328 330 330 330 330 329 328 328 328 328 329 330 331 331
338 339 339 343 345 344 342 341 340 338 335 334 330 327 326 329 332 332 333 337 339 338 336 334 332 332 334 337 339 340 339 339 340 340 340 340 339 338 338 339 339 339 339 338 338 338 338 335 329 324 325 328 331 332 333 333 334 334 334 334 334 334 335 335 336 334 331 330 329 328 328 329 330 330 329 330 329 328 328 328 328 328 328 328 329
336 338 337 341 344 342 341 340 340 338 335 333 330 327 327 330 332 333 335 338 339 338 335 332 330 332 335 338 339 338 338 339 339 340 340 339 338 337 337 339 339 339 339 339 339 338 338 335 329 324 325 328 330 332 333 334 334 334 334 334 334 335 335 334 334 332 330 329 328 327 328 329 329 329 329 329 329 329 329 329 329 328 328 328 329
338 337 335 339 342 340 339 340 340 338 335 333 331 327 327 331 333 335 338 339 339 338 335 334 332 333 335 336 336 335 337 337 338 338 337 337 337 336 337 338 338 339 339 339 338 338 338 336 330 324 327 329 331 332 333 334 334 335 335 334 334 335 335 332 332 331 329 329 327 327 326 327 328 329 329 329 329 329 329 329 328 328 328 328 329
339 336 333 338 341 340 340 341 341 338 335 334 331 328 329 333 335 339 340 339 339 338 337 336 333 332 333 333 333 335 336 336 335 336 335 335 334 334 336 338 338 338 338 338 338 337 337 336 332 326 327 330 331 333 333 334 335 335 334 333 334 336 335 332 332 331 329 328 327 326 327 327 328 329 328 329 329 329 329 328 328 328 328 328 328
337 336 337 340 342 343 342 342 341 338 336 334 331 330 332 335 338 341 340 339 339 338 337 335 331 330 330 333 335 336 336 336 336 335 335 334 333 333 335 336 336 336 337 337 337 337 336 336 333 328 327 328 330 331 332 334 334 334 333 333 334 335 335 334 333 330 328 328 327 327 327 329 330 330 329 329 329 329 329 328 327 328 328 328 327
334 338 341 342 344 344 343 342 341 339 337 335 333 333 335 337 340 342 340 340 339 338 336 332 329 328 330 335 338 336 337 337 336 336 336 335 335 335 335 334 335 335 335 335 336 336 336 336 334 330 327 327 328 329 330 332 333 333 333 334 334 335 334 334 332 330 329 328 327 327 328 329 329 329 329 329 329 328 328 328 327 327 327 327 327
332 338 342 343 345 345 344 343 341 340 339 336 334 335 336 338 341 341 341 340 338 337 333 329 328 329 331 336 337 337 337 337 336 336 337 337 336 336 334 333 333 333 334 336 337 337 337 336 334 331 329 328 327 327 328 329 332 333 333 334 334 335 334 333 332 331 329 328 327 327 328 329 328 328 329 328 328 328 327 328 327 327 327 327 327
334 339 342 343 345 345 344 343 342 341 340 338 336 337 338 340 342 341 341 338 337 335 331 328 329 332 333 336 337 336 336 336 336 337 338 338 337 335 333 331 330 330 333 336 336 336 337 336 334 333 331 330 328 326 326 327 330 331 333 334 334 334 335 333 333 331 329 328 328 328 327 328 328 328 328 328 328 328 328 327 327 327 326 326 325
338 340 343 344 344 344 344 343 342 342 340 339 338 339 339 341 341 340 339 336 336 332 328 328 331 334 335 336 336 336 336 335 336 337 337 337 336 333 331 331 330 330 331 334 336 336 336 336 335 334 333 333 330 326 324 325 327 330 333 334 333 334 335 334 333 331 329 329 329 328 327 328 328 327 328 329 328 327 327 327 327 326 326 325 325
341 341 343 344 343 343 343 343 342 341 340 340 340 339 339 341 341 338 336 335 333 328 326 331 335 337 337 337 337 336 336 336 336 336 335 335 334 333 333 332 329 329 328 329 332 333 335 335 335 335 334 333 331 327 324 324 327 331 334 334 333 333 335 335 333 330 329 330 329 328 327 328 329 327 327 327 327 327 327 326 326 326 326 326 325
342 342 343 343 342 343 343 343 342 341 340 340 340 340 340 340 339 336 334 332 328 327 330 336 339 339 338 338 337 337 337 336 335 335 334 333 333 334 334 330 325 325 324 324 326 328 333 334 333 334 333 331 330 328 327 327 329 332 334 334 333 333 335 335 333 331 330 330 328 328 328 328 329 328 329 327 326 328 327 326 326 327 326 325 324
343 343 343 343 342 342 342 342 341 341 340 340 340 340 340 340 338 336 332 329 329 332 337 338 339 339 339 339 338 338 337 335 335 335 334 334 334 335 333 326 322 322 323 324 325 326 328 329 330 332 331 330 330 330 330 331 331 331 333 334 333 333 335 336 334 332 330 329 328 328 329 329 328 329 330 328 327 326 325 326 327 326 325 323 324
343 343 343 343 343 343 342 342 341 341 341 341 341 340 340 340 338 335 331 331 334 337 338 338 338 339 339 338 338 338 336 335 335 335 334 334 335 335 330 325 322 323 323 324 325 325 325 325 326 328 328 330 330 331 331 331 331 332 333 333 332 333 335 336 334 332 329 328 329 329 329 330 328 328 330 329 328 326 324 325 323 321 323 323 323
342 343 343 343 343 343 342 341 341 341 341 341 340 340 340 339 337 332 331 334 337 338 337 337 337 338 338 338 338 337 335 334 334 333 333 334 336 334 329 325 323 323 324 324 324 324 324 324 325 326 329 331 332 331 330 330 331 331 331 332 331 332 335 335 333 331 329 329 329 329 330 330 328 329 330 330 329 327 326 324 321 318 319 321 322
341 342 342 343 343 342 341 341 341 341 341 341 340 340 339 337 334 330 331 334 336 337 336 336 335 337 338 337 337 336 335 334 335 335 335 335 334 331 329 327 324 324 325 324 325 325 326 326 325 326 329 331 331 330 330 331 331 331 331 331 331 332 335 334 331 330 329 329 329 329 329 329 329 330 331 330 329 328 327 323 318 314 313 317 321
341 341 342 342 342 342 342 341 342 341 341 341 340 339 337 334 330 330 333 334 335 336 335 334 335 337 337 336 335 335 334 336 337 337 336 335 332 330 330 329 326 325 327 327 328 329 329 328 327 327 329 330 330 331 331 332 331 331 331 331 331 333 334 332 330 329 330 330 329 328 328 329 329 330 331 330 330 329 328 324 315 309 312 315 317
341 341 341 341 341 342 342 342 342 341 341 340 339 337 334 329 327 331 335 335 335 336 335 334 335 336 336 335 335 334 334 337 338 338 337 335 331 329 332 332 329 328 330 331 331 330 330 330 330 329 330 331 332 332 331 330 331 331 331 331 333 334 334 332 330 330 330 330 329 327 327 327 327 330 331 330 332 330 329 326 316 309 315 317 314
341 341 341 340 340 341 340 340 339 339 339 337 337 337 332 325 325 332 335 335 335 336 335 334 335 336 334 334 335 334 334 337 338 337 337 334 332 332 333 334 333 331 331 333 332 331 332 332 333 333 333 333 332 332 331 330 330 330 330 331 333 334 334 333 331 330 330 329 328 327 327 326 326 329 331 331 332 331 329 326 318 311 314 317 315
339 339 341 340 339 340 338 337 335 335 336 333 335 337 332 325 326 332 335 334 334 335 333 333 335 334 333 334 334 333 334 336 336 337 336 334 334 334 334 334 335 333 332 333 333 333 334 334 334 334 334 333 332 331 330 330 330 329 329 330 331 332 333 333 332 331 330 328 327 329 329 327 327 330 331 331 331 330 329 327 322 317 314 313 312
336 337 338 338 338 339 337 335 335 334 331 330 333 333 329 328 328 332 334 334 334 334 332 333 334 334 333 334 335 334 335 334 335 336 336 335 335 335 335 336 335 334 333 333 333 334 334 334 333 333 333 332 331 331 330 330 330 329 329 329 329 331 331 331 331 330 329 328 327 328 329 328 328 330 331 331 331 330 329 328 326 324 320 315 312
335 336 336 337 338 338 337 336 335 333 329 330 333 332 331 331 331 332 333 334 334 333 333 334 334 334 333 334 335 335 335 334 335 336 336 335 335 335 335 336 335 334 334 334 333 332 333 333 333 333 332 331 331 330 330 330 330 329 329 328 328 329 331 331 331 330 329 328 327 326 325 327 328 329 331 331 331 330 329 329 328 327 325 321 318
335 335 336 337 338 338 338 336 336 334 331 333 336 335 334 334 332 332 333 334 333 333 335 335 334 334 334 334 334 335 335 335 335 335 335 335 335 335 335 335 335 334 333 334 333 332 332 332 333 332 331 331 331 330 331 330 329 329 329 328 328 329 329 330 331 330 329 328 327 326 327 330 330 329 330 330 330 330 329 328 328 327 326 325 323
335 336 337 337 337 338 338 337 336 334 333 336 338 336 335 334 332 332 333 334 334 334 334 334 334 334 334 333 333 335 335 335 336 335 334 335 335 335 334 334 334 333 333 333 332 332 332 332 332 331 331 332 332 331 331 330 329 329 328 328 328 329 329 329 330 329 328 327 326 327 330 332 332 330 330 331 330 330 329 328 328 327 327 326 325
335 336 336 336 337 338 338 337 336 335 335 337 338 336 335 334 332 332 334 335 335 334 333 333 334 334 334 333 333 334 335 335 335 335 334 335 334 334 334 334 333 333 332 332 332 332 331 331 331 331 332 333 332 331 331 330 329 329 328 328 327 328 329 328 329 330 329 326 325 328 330 331 332 331 329 330 330 330 329 328 328 328 328 328 326
336 335 336 336 338 338 338 338 336 336 337 336 337 337 335 334 333 333 334 335 335 335 334 333 334 334 335 334 333 333 334 334 334 334 334 334 334 334 334 333 333 333 332 332 333 332 332 331 331 332 332 332 332 331 330 329 329 329 328 327 327 327 328 328 329 330 330 326 324 327 330 332 332 331 330 330 330 330 329 328 327 327 328 328 326
336 335 336 336 338 338 338 337 337 337 337 336 337 337 336 335 335 335 335 335 335 334 334 334 334 335 335 334 333 333 334 334 334 334 334 334 333 333 334 334 334 334 333 332 333 332 332 331 331 332 332 331 331 330 330 329 329 329 328 328 327 327 328 329 329 330 330 326 324 327 330 331 332 331 331 330 330 330 330 328 327 327 327 327 327
336 336 336 337 338 339 338 338 337 337 337 336 336 337 338 337 337 336 335 334 333 334 334 334 333 334 334 334 334 333 333 334 334 334 334 333 333 334 334 334 334 334 333 333 333 332 332 331 332 332 332 331 331 330 330 329 329 329 328 328 328 327 327 329 329 330 330 326 325 327 328 330 331 331 331 330 330 330 330 329 328 327 327 327 327
335 335 337 337 337 338 338 337 337 337 336 336 336 337 338 338 337 336 334 334 334 334 335 334 333 333 333 334 334 332 333 334 334 334 334 333 334 334 334 334 334 334 332 332 332 331 331 331 332 333 332 332 330 329 329 329 329 329 329 328 327 327 327 328 330 331 330 326 324 325 325 326 328 330 331 330 330 330 329 329 328 327 327 327 327
334 335 337 337 337 338 338 336 337 337 336 335 337 337 337 337 336 335 334 335 335 335 334 334 334 334 334 334 333 333 334 334 334 334 334 333 334 335 334 334 333 333 332 332 332 332 332 333 333 332 333 333 331 329 329 329 329 329 329 329 329 328 328 329 330 331 330 327 324 324 325 324 325 327 330 330 329 329 329 329 328 327 327 326 327
334 335 336 337 337 337 336 336 336 337 336 336 337 337 337 338 336 335 336 336 335 335 335 335 334 334 333 333 334 334 334 334 333 333 333 333 334 334 334 333 332 333 333 333 333 333 333 333 332 332 333 333 330 329 330 329 329 329 330 330 330 330 329 329 330 331 331 328 326 327 327 326 326 326 328 329 328 328 328 328 328 328 327 326 327
334 335 336 337 337 336 335 335 336 336 337 336 337 338 338 337 336 336 336 335 335 334 334 334 333 333 333 333 334 334 334 334 333 333 333 333 333 333 333 333 333 333 332 333 333 333 333 333 332 332 333 333 331 329 330 330 329 329 330 331 331 331 330 329 329 331 331 330 329 330 329 328 328 327 326 327 327 326 326 327 327 326 327 326 327
334 334 335 336 336 336 335 335 335 335 336 336 337 337 335 335 335 335 336 335 334 333 333 333 333 333 333 334 334 334 334 334 333 333 333 332 332 331 331 332 332 332 332 332 333 332 332 332 332 332 332 332 330 329 329 330 329 329 331 331 331 331 331 330 329 330 330 330 330 331 330 329 329 328 327 326 326 326 326 327 327 326 326 326 326
334 334 335 335 335 335 336 335 335 336 335 334 334 334 334 335 335 335 335 334 333 333 333 333 333 333 333 334 334 334 333 333 333 332 332 331 330 331 331 331 331 331 332 332 333 333 332 332 332 332 332 332 330 329 330 330 329 329 329 329 330 330 330 330 330 330 329 329 330 330 330 329 329 329 328 327 327 327 327 327 328 328 326 325 325
334 334 334 334 334 335 335 334 334 335 335 334 333 333 334 335 335 335 334 333 332 333 332 331 331 331 330 329 329 331 332 331 330 330 330 330 331 331 331 332 331 331 332 332 333 332 332 332 332 332 332 331 330 330 330 330 329 329 329 329 329 330 330 329 329 329 329 329 329 329 330 330 330 329 329 329 327 327 328 328 328 329 328 327 326
334 334 334 334 333 334 334 334 333 334 334 333 332 333 334 335 334 334 333 332 332 333 331 331 330 327 326 325 326 328 330 329 327 328 328 329 330 330 331 331 330 331 331 331 332 332 332 332 333 332 332 330 330 330 330 330 329 329 329 329 328 328 330 329 327 327 328 328 329 329 329 330 329 330 330 329 329 328 329 329 329 328 328 328 328
333 334 334 333 333 333 334 333 333 334 333 331 330 332 334 333 331 332 332 331 331 332 331 331 330 327 327 328 326 327 328 328 327 327 327 327 328 328 329 328 329 329 329 330 331 331 331 332 332 332 331 330 330 330 329 329 329 329 329 329 329 330 329 327 326 327 327 327 328 328 328 328 328 328 329 329 329 328 329 329 328 327 327 327 328
334 334 334 334 333 333 333 333 334 334 333 332 332 333 333 331 330 330 329 329 329 330 330 330 329 329 328 328 327 327 329 329 328 327 327 327 327 327 327 327 327 328 329 329 330 330 330 331 331 331 330 330 329 329 329 329 329 328 329 329 330 331 328 326 327 327 327 327 327 327 327 327 328 328 328 328 328 327 327 328 327 326 327 327 327
334 334 334 334 333 333 333 334 335 334 334 334 333 333 332 330 330 329 329 328 327 327 328 327 326 327 326 326 327 327 328 328 326 326 327 327 326 326 327 327 327 327 328 328 328 329 329 330 330 330 330 330 329 329 329 329 329 328 329 330 329 329 327 326 327 327 328 328 326 326 327 328 328 328 327 327 327 327 327 327 326 326 326 327 327
334 334 334 334 333 333 335 335 335 334 333 333 332 332 331 329 329 329 328 326 325 326 327 325 325 326 325 325 326 326 326 326 325 326 326 327 326 326 326 326 327 327 327 328 328 328 328 329 329 329 330 329 328 329 329 329 329 329 330 330 328 328 327 326 326 326 328 328 327 327 327 328 328 327 327 327 326 326 326 326 326 325 325 325 325
334 334 334 334 333 334 335 335 335 334 332 331 329 329 329 328 329 328 326 325 324 326 326 325 326 326 325 325 324 324 324 324 324 325 326 325 325 325 325 326 326 326 327 327 328 329 329 328 328 329 329 328 328 329 329 329 329 329 329 328 328 327 326 326 326 326 326 327 328 326 326 327 327 327 326 326 326 326 326 325 324 324 323 323 323
334 334 334 333 333 334 334 334 334 332 331 329 327 327 327 327 327 325 324 324 324 325 326 326 326 326 325 324 322 322 324 325 324 325 325 324 324 325 325 325 325 326 327 327 328 329 329 329 328 328 328 328 328 328 328 329 329 329 329 328 328 327 326 326 325 325 324 324 326 325 325 326 326 326 325 325 325 325 324 324 323 323 322 322 322
334 334 334 333 333 333 333 333 332 331 331 329 327 326 326 326 325 323 324 323 323 324 325 325 325 325 325 324 323 324 325 325 325 324 324 323 324 325 325 325 325 325 326 327 329 329 329 329 329 328 328 328 327 328 328 328 328 328 329 328 328 327 327 326 325 325 324 323 325 325 324 325 325 325 322 319 319 320 320 320 320 320 319 318 316
Wind_Speed
20 21 21 20 21 22 21 23 23 24 23 23 23 21 21 22 23 23 22 22 22 22 21 22 23 25 26 27 27 27 26 25 25 25 24 24 23 23 23 22 20 19 18 18 19 18 17 17 17 17 16 17 19 20 21 20 19 19 20 19 19 21 21 20 20 21 21 21 21 20 18 17 17 17 17 17 18 17 17 18 19 20 21 18 17
22 21 21 20 22 21 22 23 24 24 23 24 23 22 22 22 24 23 22 22 22 22 21 23 25 27 27 28 27 26 25 25 24 24 23 22 22 23 23 22 20 18 17 18 19 18 16 16 17 17 16 17 19 20 20 19 18 19 19 19 20 22 21 20 21 21 20 20 21 21 19 18 17 17 18 17 17 17 17 18 19 20 21 18 17
24 21 20 20 21 21 23 24 24 24 24 24 23 22 23 23 24 23 22 22 22 22 22 24 26 27 27 27 25 24 24 24 24 23 22 21 21 21 21 19 18 16 16 17 18 17 16 16 16 16 15 17 19 19 18 17 17 18 19 20 21 20 19 21 22 21 20 20 20 21 20 19 18 17 17 16 16 18 17 19 19 19 20 18 18
26 23 21 20 20 22 23 24 24 24 24 24 23 23 23 24 24 23 22 22 22 23 23 24 25 26 26 25 24 23 23 23 23 22 21 20 19 19 18 17 16 15 15 16 17 17 17 16 15 14 14 17 18 17 17 16 16 17 18 19 19 17 17 20 22 22 21 20 20 21 21 20 19 17 17 16 16 17 17 19 19 18 18 18 18
28 24 22 21 21 23 23 24 24 24 25 24 23 23 23 24 24 23 22 21 22 22 23 24 24 25 24 23 22 21 22 22 22 22 20 19 19 18 17 16 15 15 14 15 16 15 15 15 14 14 14 16 16 16 16 16 16 17 17 17 17 14 14 16 17 19 19 18 19 20 22 21 19 18 17 16 16 16 15 16 17 17 16 16 17
29 26 24 22 22 23 23 24 24 24 25 24 23 22 23 23 24 23 21 21 21 22 22 23 23 23 22 22 21 20 21 21 22 21 20 19 18 17 16 15 14 15 15 15 14 14 13 13 13 13 15 16 16 17 17 16 16 16 16 15 14 13 12 11 9 11 14 15 16 19 22 21 20 18 16 16 15 15 14 15 16 15 15 14 15
29 27 26 24 23 23 23 23 23 24 25 24 23 23 23 23 24 22 21 21 21 21 21 21 21 21 20 20 20 20 20 21 21 20 19 18 17 17 16 15 14 14 15 14 13 13 12 11 12 14 16 17 18 18 17 16 16 15 15 13 12 12 9 7 4 5 10 13 14 19 22 20 19 17 16 15 15 15 15 15 15 14 14 14 15
29 28 26 25 24 23 23 23 23 24 25 24 23 23 23 23 24 22 21 20 20 20 20 20 20 19 19 18 19 19 20 20 20 18 17 17 17 16 16 15 14 14 14 14 12 12 11 10 12 15 17 18 18 17 17 16 15 14 13 12 10 9 6 4 2 5 11 12 14 18 19 19 18 17 16 15 16 15 15 15 15 15 14 14 14
29 27 25 25 24 23 23 23 23 24 25 24 23 23 23 23 23 22 21 20 20 19 19 19 18 18 18 17 17 18 19 19 18 17 17 17 16 15 15 16 14 14 13 12 11 11 10 9 11 14 17 18 17 16 15 15 14 13 12 11 10 9 8 6 5 11 15 13 14 16 17 18 18 17 15 15 16 16 16 16 16 15 15 15 14
29 27 26 25 24 24 23 23 24 24 25 25 24 23 23 23 23 22 21 20 20 19 18 18 18 17 17 17 16 17 18 17 17 16 16 15 14 14 15 16 14 13 12 10 10 10 9 9 10 13 17 17 17 16 14 14 13 12 11 11 12 12 10 10 11 15 16 15 15 15 16 17 17 17 16 15 16 16 16 16 15 15 15 14 14
28 27 27 25 24 24 23 24 24 25 26 25 23 23 23 24 23 21 20 20 19 18 18 17 17 17 17 16 15 16 16 16 16 15 15 14 13 14 15 15 15 13 11 10 10 9 9 9 11 13 17 17 16 15 14 13 12 11 11 12 13 14 11 13 15 16 16 15 15 14 15 15 17 17 16 16 15 16 15 15 15 15 15 14 13
27 27 27 25 24 23 23 24 24 25 26 25 23 22 23 24 23 21 20 20 19 18 17 17 17 17 16 15 15 15 14 14 14 14 13 12 12 12 14 14 14 13 11 10 9 8 8 9 11 13 16 16 15 14 13 12 11 11 11 12 13 14 13 15 15 15 15 15 14 14 14 15 17 18 16 16 15 15 15 15 15 15 15 14 13
27 27 26 25 24 23 23 23 25 25 25 24 23 22 23 24 22 20 19 19 18 17 17 17 17 17 16 16 16 15 14 13 13 13 12 12 12 12 13 12 11 11 10 10 8 8 7 8 10 11 13 13 13 12 12 11 10 10 11 11 13 13 13 15 14 14 15 14 13 13 14 16 18 17 16 16 15 15 15 15 15 14 14 14 14
28 27 26 25 24 23 23 24 25 25 24 23 22 23 24 23 21 19 19 18 17 17 17 16 16 16 16 16 15 15 15 14 13 13 13 14 13 13 13 12 10 10 10 9 8 7 7 8 9 9 11 11 11 10 10 9 9 9 10 10 13 14 13 14 13 13 14 14 14 14 15 17 17 17 16 15 15 15 14 14 14 14 14 13 13
28 26 25 24 23 22 22 24 24 24 23 22 23 24 24 23 20 18 18 17 16 16 16 16 16 15 15 15 15 15 14 14 13 13 13 14 14 13 12 12 11 10 9 8 7 7 7 8 8 7 10 10 9 8 8 8 8 7 8 10 12 13 14 15 13 12 14 14 14 14 15 16 15 15 15 15 15 15 15 14 14 14 14 14 13
27 25 24 24 23 22 22 22 23 23 22 23 24 24 24 22 19 18 17 16 15 15 15 15 15 14 13 14 14 14 14 13 13 12 13 13 13 12 11 10 10 9 9 8 8 8 7 8 8 7 8 8 8 7 7 7 7 6 7 9 11 12 13 15 13 12 13 15 14 13 13 13 13 15 15 15 15 15 15 14 14 14 13 12 12
26 25 25 25 24 24 23 22 22 22 22 23 24 24 24 21 18 17 16 15 14 14 14 14 13 12 11 13 14 13 13 12 12 13 13 13 13 11 10 9 9 9 10 9 8 7 7 7 7 7 6 6 6 6 6 7 6 5 6 8 10 11 10 13 12 12 13 14 13 12 12 12 12 14 14 14 14 14 14 14 14 13 12 11 11
26 26 27 25 25 24 24 23 22 23 23 24 24 24 23 20 18 16 15 14 14 14 14 13 11 10 11 12 13 12 12 12 12 13 13 12 11 10 10 10 9 9 10 9 8 7 7 7 6 6 6 5 5 6 6 6 5 4 6 7 9 11 9 11 13 12 12 12 11 11 11 12 12 12 13 14 14 14 14 13 14 13 12 12 12
26 26 27 26 25 25 24 24 24 25 25 24 23 23 21 19 16 15 14 14 14 14 12 12 11 10 11 13 13 12 11 11 12 12 12 11 11 10 10 10 8 8 8 9 9 7 7 6 5 5 6 4 4 6 7 6 5 5 6 6 8 10 9 11 13 12 12 11 11 11 11 11 11 11 12 13 13 14 14 13 13 13 13 12 12
25 25 26 26 25 25 25 25 25 25 25 24 23 21 20 17 15 14 14 15 15 14 12 11 11 11 12 13 13 12 11 10 10 10 10 10 10 10 9 9 8 8 8 8 8 7 7 6 6 6 5 4 5 7 8 7 6 6 6 5 7 10 8 10 12 11 11 11 11 11 10 10 10 11 12 11 12 13 13 13 12 12 12 11 12
25 25 26 26 25 25 25 25 25 25 24 24 22 20 19 16 15 14 15 16 15 14 13 13 13 13 13 14 13 12 11 10 9 9 10 10 9 9 9 9 10 11 10 9 8 7 6 5 6 6 5 5 7 8 7 7 6 6 6 5 5 9 8 11 13 10 11 11 11 10 10 9 10 11 12 11 11 11 12 13 12 11 10 11 12
25 24 24 25 24 25 25 25 25 24 24 23 22 20 18 17 15 16 17 16 15 15 15 15 15 15 14 14 13 13 12 11 10 9 9 9 9 9 9 10 11 12 11 10 9 8 7 6 5 5 5 7 8 8 6 6 6 6 7 5 5 7 8 10 13 10 10 11 11 10 9 9 8 10 11 11 10 9 10 10 10 10 10 11 11
24 23 23 24 24 25 24 25 24 24 23 23 22 20 19 18 17 18 19 18 17 17 17 16 15 14 14 13 13 14 13 11 9 8 8 8 8 8 9 10 12 13 12 11 10 10 9 8 7 7 7 8 7 6 5 4 4 4 4 3 4 6 7 11 13 10 11 11 11 10 9 8 7 10 11 10 9 8 8 8 8 9 10 10 10
22 23 23 22 23 24 24 24 24 23 23 23 22 21 20 19 19 20 20 19 18 17 16 16 15 14 14 13 14 14 13 12 10 9 9 8 7 7 8 10 11 12 11 10 10 10 10 9 8 8 7 7 5 4 3 1 1 1 1 3 4 6 7 11 12 12 12 11 11 9 8 7 7 11 11 10 8 7 7 7 7 8 9 10 10
21 22 21 20 21 23 23 23 22 22 22 22 21 21 21 19 20 20 20 18 17 17 16 15 15 15 14 14 14 14 14 13 12 11 10 8 7 7 8 9 10 11 10 9 9 9 8 8 8 7 6 5 4 2 2 4 3 2 1 3 6 7 9 13 15 15 14 13 10 8 7 7 8 11 11 9 8 7 6 6 6 8 10 10 10
20 19 19 19 21 23 23 22 20 20 20 21 21 21 21 20 20 20 18 17 17 16 15 15 15 15 15 15 15 14 14 14 13 11 9 8 8 8 9 9 9 10 9 8 9 8 7 7 6 5 4 3 3 4 3 3 3 2 2 5 7 9 11 15 17 16 15 14 12 9 7 7 8 11 11 9 8 6 5 5 6 8 9 9 9
20 19 20 20 21 24 24 22 21 21 22 22 22 22 21 20 19 18 17 17 16 16 15 14 14 15 15 15 14 14 14 14 12 11 9 9 9 9 9 9 9 9 7 6 7 7 5 3 2 1 2 3 4 4 2 2 4 5 5 6 8 9 10 13 16 15 13 13 14 12 9 8 9 12 12 9 8 6 5 6 7 9 9 9 9
23 18 20 21 22 24 23 24 24 24 25 24 23 23 21 19 18 17 17 16 16 16 15 14 14 15 14 13 14 14 14 13 11 10 9 9 9 8 8 8 8 8 7 5 4 3 2 0 1 2 3 4 4 3 1 1 4 6 6 7 8 7 7 9 13 14 13 13 13 12 9 7 10 13 11 8 8 7 6 6 8 9 9 9 9
24 17 20 21 22 23 23 26 26 26 26 25 23 22 21 19 18 17 17 17 17 16 15 15 16 15 14 12 12 13 14 13 11 10 10 9 8 7 7 7 6 5 5 5 4 3 1 1 2 2 3 3 3 3 1 2 5 7 6 7 6 5 7 8 11 12 12 12 12 11 10 8 11 14 11 8 8 9 8 7 7 8 8 8 9
26 21 22 21 21 25 26 27 28 26 27 26 24 23 21 20 19 17 17 17 16 14 14 15 15 15 14 12 11 13 13 12 11 11 10 9 8 8 7 7 7 6 5 5 4 4 3 2 2 1 2 2 3 3 2 3 6 7 5 5 5 6 9 9 9 10 11 11 11 11 11 11 12 15 13 10 10 9 8 8 7 7 7 7 8
27 24 25 26 26 29 28 28 28 27 27 27 25 23 22 21 20 18 17 16 14 14 14 14 15 14 12 10 11 12 13 12 11 11 11 10 10 8 7 7 8 8 7 6 4 4 3 2 1 0 1 3 4 4 3 4 8 7 5 5 5 7 10 9 9 11 12 12 13 13 13 13 12 13 14 11 10 9 8 9 7 5 6 6 7
28 28 29 30 30 32 30 28 28 29 29 27 26 24 23 22 20 19 17 16 15 16 16 14 14 13 11 9 11 13 13 12 11 11 11 11 10 9 7 7 7 7 7 7 5 4 3 2 2 2 3 5 5 4 3 5 9 8 6 6 6 6 9 9 10 12 13 13 15 16 15 14 12 11 13 11 10 9 8 8 7 6 7 7 7
29 30 29 29 29 31 31 29 30 31 30 28 27 25 23 22 21 19 18 17 16 16 15 14 13 14 12 11 13 13 12 12 11 10 10 10 10 8 8 8 7 7 7 8 6 5 4 4 4 4 6 7 7 5 4 6 10 9 6 7 6 6 8 8 8 11 13 14 16 17 16 14 13 11 12 11 10 9 9 9 8 7 7 7 7
29 28 29 28 28 31 30 29 30 31 30 29 28 26 24 23 22 20 19 17 16 14 14 14 14 14 13 12 15 13 10 11 10 9 9 9 9 8 8 9 8 7 7 8 7 5 5 4 4 7 8 8 7 6 5 8 11 9 7 8 7 6 7 7 8 11 13 14 15 16 16 14 13 11 11 11 10 9 8 9 9 8 7 6 5
29 28 30 29 28 30 30 29 30 30 31 30 27 27 26 25 23 20 19 18 16 15 15 15 13 13 13 13 15 12 10 10 9 9 9 9 9 8 9 9 8 7 6 7 7 6 5 5 5 7 8 8 8 7 7 10 11 9 8 7 7 8 8 9 10 11 12 14 16 16 16 15 13 12 11 11 11 9 7 8 8 8 7 5 5
30 30 30 30 28 28 30 31 30 30 31 30 28 29 28 27 24 22 20 18 17 16 15 14 13 13 13 13 12 10 10 10 8 9 9 9 9 9 9 7 7 7 5 7 7 6 6 7 6 6 8 9 9 9 9 11 12 10 9 8 8 9 10 10 10 11 14 14 15 16 15 14 13 12 12 12 11 9 7 8 8 7 7 6 5
30 29 30 30 29 28 30 30 30 29 30 29 29 29 28 26 24 22 19 17 17 16 15 14 14 13 12 12 11 9 10 9 8 9 9 9 10 9 8 7 8 7 5 7 8 7 8 9 8 7 7 10 11 12 12 12 14 13 11 10 10 10 10 9 9 11 14 15 15 15 14 12 12 12 13 12 11 10 9 9 8 6 8 6 5
28 30 30 30 30 29 29 29 28 28 28 28 28 28 27 24 22 20 18 17 16 15 15 15 14 12 10 10 10 10 10 9 8 9 10 10 10 9 8 8 9 8 7 8 9 9 9 8 8 9 8 10 11 12 13 13 16 16 14 12 11 11 10 9 9 10 13 14 14 14 12 11 11 12 13 12 10 11 10 10 9 7 8 8 7
28 30 30 30 31 29 27 27 27 28 28 28 27 27 25 24 22 19 18 17 15 14 14 15 13 11 10 11 11 10 9 9 8 8 9 10 10 8 6 5 6 8 9 9 9 9 8 7 8 10 10 10 11 13 14 15 17 16 14 13 11 10 9 7 8 9 11 13 13 12 11 11 10 11 12 10 10 10 10 10 9 8 9 9 8
29 30 30 31 32 29 26 27 28 29 29 27 26 25 25 24 22 20 18 17 15 14 14 14 13 12 13 13 12 10 8 8 8 8 9 8 7 6 5 5 5 8 9 9 9 8 8 8 8 11 12 12 13 14 15 17 19 18 15 14 11 9 8 7 8 8 9 11 12 12 11 11 10 9 9 10 9 8 9 8 8 8 9 9 10
26 29 30 31 32 30 28 28 29 30 29 27 27 26 26 25 22 21 19 18 16 14 13 14 14 14 15 13 11 10 9 9 8 8 7 6 5 4 5 7 7 8 9 9 8 8 8 8 8 10 11 14 16 15 16 19 19 17 14 13 11 10 10 10 9 8 7 8 10 12 12 12 10 9 9 9 8 7 7 6 6 6 7 8 9
27 29 29 30 31 30 29 29 29 30 29 28 28 28 26 25 23 22 21 19 17 15 15 16 15 15 14 12 11 10 10 9 8 7 6 5 4 5 7 9 9 10 10 10 8 8 9 9 9 10 10 13 16 17 18 14 13 13 12 10 8 9 11 11 10 9 8 7 7 9 11 11 11 10 9 8 7 7 7 6 6 5 6 7 7
29 28 28 29 29 29 30 30 30 31 29 28 29 28 25 23 22 22 22 20 18 17 17 17 16 14 13 11 10 10 10 10 9 9 8 6 6 7 9 9 9 9 10 11 9 8 9 9 11 11 10 12 14 18 16 9 11 14 11 6 3 4 7 8 9 9 8 7 7 8 9 10 10 10 9 8 7 8 7 7 6 5 5 6 6
28 28 27 28 29 30 31 30 30 31 30 29 27 26 24 20 19 21 22 21 19 18 17 17 15 14 13 12 10 11 12 12 12 11 9 8 8 9 9 8 8 7 7 9 9 8 8 9 11 10 10 12 13 14 12 10 16 15 7 3 2 2 2 4 7 9 7 6 6 7 9 9 9 9 9 8 7 7 6 6 5 5 4 5 6
28 29 30 30 29 30 32 32 31 32 31 29 27 26 23 20 20 22 23 22 21 20 19 18 16 14 12 11 10 12 13 13 12 10 9 8 8 9 9 8 7 6 5 6 7 7 7 8 10 9 10 11 11 13 11 13 19 13 6 5 3 1 1 4 7 7 6 7 6 5 6 7 8 7 7 6 6 4 4 4 3 3 3 3 4
26 29 30 29 29 31 33 34 33 32 31 28 26 26 23 24 28 29 27 25 23 23 23 21 18 15 12 10 10 11 12 12 11 10 9 8 8 8 9 8 7 7 6 5 5 6 7 8 8 8 8 9 10 13 13 15 16 9 5 7 3 3 8 9 5 3 5 7 6 5 7 7 7 6 6 6 5 4 3 3 3 3 2 1 1
23 25 25 25 27 30 32 33 33 32 29 26 25 25 25 29 33 31 29 27 23 22 22 20 18 16 13 13 13 13 13 13 11 10 9 9 9 8 8 8 7 7 6 6 6 6 7 7 7 7 8 8 9 12 14 14 13 7 5 6 6 7 16 13 6 4 4 4 5 7 7 6 6 7 7 8 7 5 5 5 6 6 6 4 4
20 21 22 23 26 28 30 30 31 29 26 24 25 26 29 31 31 29 27 25 22 22 20 18 17 15 15 16 16 15 14 11 11 10 10 10 10 8 8 9 9 8 6 7 7 6 6 6 6 7 7 7 8 10 13 13 11 8 6 5 6 11 16 11 12 13 6 3 5 6 8 7 7 8 9 9 8 6 7 8 9 10 9 9 9
18 19 20 22 24 26 28 27 27 26 24 25 26 28 31 31 30 28 26 23 22 23 21 19 18 17 16 15 14 14 12 10 10 11 11 10 9 9 10 11 9 8 7 8 7 6 7 7 8 8 8 7 6 8 12 13 12 12 11 11 13 14 12 10 16 17 9 6 4 2 6 9 9 10 11 10 9 8 9 10 11 11 11 11 11
18 19 20 21 22 24 25 25 24 24 24 25 27 28 30 31 30 29 27 25 25 25 23 21 20 19 17 14 12 13 12 11 11 11 11 9 8 12 14 12 10 9 9 9 8 8 8 8 8 8 8 7 7 8 11 11 12 13 14 15 17 15 12 9 13 15 11 7 5 5 8 9 9 11 11 10 10 10 10 10 11 11 11 11 11
20 21 21 22 23 23 24 24 22 23 24 25 26 27 29 30 30 29 27 27 27 27 26 24 22 20 17 15 14 14 14 13 12 11 11 10 11 14 15 13 13 12 12 10 10 9 9 8 8 9 9 7 7 9 10 11 12 12 13 15 18 18 15 12 15 17 12 8 7 6 8 11 12 12 11 11 12 12 12 12 12 13 12 12 12
Wind_Direction
161 158 158 161 161 157 150 148 147 148 148 148 144 141 137 134 130 126 125 123 121 121 122 124 128 127 125 124 122 119 116 112 109 106 105 105 104 104 104 106 109 108 105 100 100 101 99 98 98 98 98 98 98 98 99 99 98 97 99 98 95 94 92 89 87 85 83 81 80 79 78 80 83 86 88 88 80 73 73 81 90 90 87 85 83
160 155 156 161 158 151 146 145 147 148 149 148 144 141 137 135 131 127 127 123 121 118 119 123 127 127 125 123 121 118 114 111 109 108 105 105 106 105 106 109 110 107 102 102 104 102 100 101 100 101 100 101 101 102 102 101 99 98 99 100 99 96 92 89 86 85 83 81 80 79 78 79 85 88 91 92 84 76 71 77 87 88 88 87 85
154 152 155 159 155 149 145 145 147 149 149 147 144 141 138 135 132 129 128 124 120 117 119 123 126 126 125 122 118 116 113 111 110 110 108 107 109 110 110 110 110 108 103 103 107 105 103 103 102 102 101 106 107 106 106 103 101 101 101 102 102 98 92 88 85 83 83 82 81 79 81 82 85 90 92 93 87 81 71 70 79 85 87 88 85
153 151 154 158 154 149 146 147 148 150 149 147 145 141 138 136 132 131 129 124 120 118 121 124 127 126 125 122 117 115 113 112 111 111 111 109 109 110 111 110 110 108 104 101 105 108 106 105 105 105 103 107 109 109 110 109 105 105 106 103 104 101 94 91 82 77 80 82 80 78 85 88 85 88 92 93 88 87 80 70 73 77 81 84 83
151 149 154 157 153 149 147 148 149 150 148 147 145 141 139 138 134 132 129 126 122 121 123 125 128 128 126 123 119 117 114 114 113 113 114 112 111 111 111 111 109 105 103 101 103 106 108 109 108 107 107 108 108 110 114 114 111 110 110 107 109 105 100 100 83 71 77 83 82 79 85 89 86 87 90 93 89 90 89 80 74 70 73 78 79
149 148 153 154 152 150 149 149 149 149 148 147 145 142 141 139 136 134 132 128 125 124 125 127 129 129 128 125 122 119 116 116 115 116 117 117 117 116 114 112 109 105 105 105 104 103 107 110 106 108 111 112 113 116 119 118 116 114 112 113 114 113 112 117 100 68 74 86 85 83 85 87 87 87 88 91 90 90 91 87 80 73 73 75 75
150 149 151 152 152 150 150 150 149 149 149 148 145 143 142 140 138 136 135 131 128 127 126 129 131 132 130 128 126 122 120 119 119 120 119 120 121 118 115 113 110 109 109 108 106 104 104 100 102 111 116 119 121 123 123 122 120 117 115 115 114 117 120 119 117 78 83 93 91 89 91 91 89 87 86 88 89 89 89 87 85 83 79 79 78
149 149 150 151 151 152 152 150 149 150 150 149 146 145 144 142 141 139 137 134 131 129 128 131 134 136 135 132 128 124 123 123 123 122 123 125 126 123 119 117 115 115 114 110 107 105 101 92 102 114 120 124 125 125 124 123 121 116 113 110 106 101 90 81 105 123 115 108 98 95 97 99 95 89 86 85 87 88 90 89 87 87 84 80 78
150 151 151 150 151 155 153 152 151 151 152 150 148 147 146 145 143 142 140 136 133 131 130 132 136 140 139 135 131 128 128 127 126 125 129 131 128 124 121 121 119 121 119 112 107 105 102 91 98 116 124 127 127 127 124 123 119 113 108 99 90 73 68 84 126 137 129 115 102 99 100 102 97 91 88 87 88 89 92 94 92 89 85 81 79
150 151 152 151 154 158 154 152 151 152 153 152 150 149 149 147 146 145 143 139 134 132 132 133 136 139 139 136 132 132 133 132 131 131 134 134 129 123 122 124 121 121 119 112 106 106 103 84 90 119 128 129 128 128 126 123 117 110 101 88 75 66 79 108 125 132 126 113 103 100 101 103 99 94 92 89 88 91 93 95 94 90 87 86 87
150 152 153 153 156 159 154 152 152 153 155 154 152 151 151 149 148 146 144 140 135 134 133 134 135 137 138 135 134 136 138 137 135 135 135 134 131 127 126 128 125 121 117 110 108 109 104 79 88 122 129 129 130 129 128 123 115 106 93 82 69 69 99 126 127 126 119 110 102 100 103 102 100 98 96 94 90 91 93 93 93 91 88 88 90
150 152 153 154 157 159 155 153 154 155 156 155 153 153 152 151 150 147 144 141 137 136 134 135 136 136 136 134 138 139 139 139 137 134 133 132 131 129 129 131 130 126 119 112 113 116 107 80 89 121 129 130 132 130 129 122 113 102 88 78 64 72 117 137 131 124 116 108 100 101 104 100 101 102 100 98 95 94 94 94 94 92 88 87 90
149 153 154 155 158 160 157 154 155 156 158 156 155 153 153 153 150 146 145 143 140 137 136 138 139 138 137 137 139 138 137 138 136 131 127 125 124 125 129 132 131 131 124 116 120 120 108 85 90 119 130 129 133 130 127 121 111 99 87 76 60 75 126 142 134 125 115 107 99 101 102 97 100 104 104 102 100 98 97 96 95 94 90 87 88
150 152 153 155 158 159 156 154 155 157 158 156 154 154 155 154 149 147 146 144 142 139 139 140 140 140 139 136 134 132 132 133 132 128 122 120 119 118 123 128 129 132 129 122 125 118 105 90 88 120 133 129 129 127 125 121 110 101 88 72 59 79 129 145 135 126 115 107 100 101 101 100 102 104 105 105 104 102 100 98 96 95 92 89 89
150 150 151 154 154 155 155 154 156 157 158 155 154 155 156 154 149 148 148 147 145 142 142 142 141 140 138 132 128 127 127 128 127 126 121 119 120 117 120 125 122 124 128 125 124 116 108 98 91 118 135 127 121 121 125 123 113 106 90 71 60 81 130 147 139 128 115 109 102 99 103 107 111 109 107 107 108 106 103 101 99 98 94 92 92
151 149 150 152 151 151 153 154 156 156 155 154 155 156 156 154 149 149 149 150 147 143 142 142 141 139 139 133 129 131 128 127 126 125 123 122 123 121 122 124 118 117 122 124 125 121 111 102 97 111 135 133 125 123 123 126 121 113 93 75 61 76 128 152 144 131 118 110 103 98 104 109 111 113 114 111 110 109 106 105 104 103 100 99 96
152 150 149 150 150 150 153 155 155 153 153 154 156 157 157 154 149 149 152 153 147 144 143 140 140 140 142 138 135 136 131 127 126 127 125 125 126 124 122 119 116 114 121 126 124 123 115 107 106 108 127 138 134 133 125 127 127 120 102 80 61 67 119 158 148 132 121 112 102 97 103 110 112 115 116 113 113 113 111 110 108 107 104 102 99
151 151 150 148 149 151 154 154 153 152 153 154 155 157 156 153 150 152 153 154 149 146 144 141 143 145 144 139 140 141 133 128 127 128 127 128 129 125 120 113 112 114 121 131 131 129 124 118 120 119 124 130 128 134 133 132 127 124 117 83 56 59 98 155 152 136 125 114 104 98 102 112 118 118 117 119 119 115 112 112 111 109 104 101 102
151 152 149 148 150 152 154 152 153 153 153 154 154 155 155 152 151 153 154 153 151 146 146 146 145 145 146 141 144 145 137 129 126 127 127 128 127 122 114 105 106 113 118 130 138 142 143 138 143 143 136 133 130 136 142 142 127 125 127 84 52 53 85 146 152 141 128 118 109 99 103 115 120 118 120 123 120 118 118 116 114 111 107 106 107
151 152 148 150 152 153 152 151 153 152 153 153 152 154 154 154 153 154 154 154 152 150 151 149 145 150 153 148 148 149 143 135 129 127 126 126 123 119 109 100 102 107 107 115 128 138 147 154 160 155 144 139 138 139 140 141 129 129 135 91 52 45 76 146 153 142 131 121 112 101 107 117 117 116 119 122 121 126 126 117 111 111 112 110 108
152 152 150 152 153 153 151 151 153 152 153 152 153 154 153 156 157 154 154 155 155 154 155 154 157 162 161 155 154 153 149 143 136 133 130 127 125 121 108 100 102 103 103 105 112 119 128 141 153 155 143 136 137 135 130 131 130 136 141 109 71 48 66 147 154 142 134 123 115 107 110 116 116 122 127 127 122 124 122 117 115 116 115 111 110
152 152 153 153 153 152 151 152 152 152 154 152 153 153 154 160 160 157 156 159 161 159 160 164 169 168 165 162 159 158 154 148 145 142 135 132 133 126 110 105 106 105 104 103 103 105 108 115 132 144 137 133 136 136 131 133 136 141 142 111 92 63 67 140 152 143 135 124 119 112 115 121 119 126 131 127 121 117 112 115 119 117 114 112 112
152 151 152 153 152 151 152 154 152 154 154 152 154 156 160 165 165 162 162 167 167 165 166 169 173 172 169 168 163 159 155 150 147 142 136 137 137 126 113 111 111 111 107 102 99 98 99 102 112 126 137 144 147 147 139 138 141 135 132 92 91 89 91 139 150 142 133 125 123 119 124 132 122 125 130 128 125 119 107 108 117 117 117 115 113
150 149 148 150 151 150 153 156 156 158 157 156 158 160 164 170 170 169 171 174 171 170 172 171 173 174 173 170 163 158 154 151 146 144 145 145 140 130 119 115 114 114 111 104 99 96 98 101 108 120 134 148 148 138 117 62 1 51 89 70 77 82 100 141 147 139 135 129 128 127 136 140 124 129 134 132 129 123 109 104 116 122 122 120 118
146 144 141 144 149 151 154 154 155 158 158 158 159 161 167 172 174 173 177 178 175 176 176 174 175 175 172 169 164 160 158 154 151 154 154 149 143 137 125 116 115 116 116 113 108 104 106 105 107 111 116 127 115 81 14 349 335 321 358 47 66 87 116 143 147 140 138 136 135 138 149 147 135 138 141 137 138 136 120 101 113 125 123 121 119
136 134 132 139 147 149 150 146 149 157 157 157 158 163 169 175 179 176 177 179 180 181 179 178 178 176 173 170 166 165 165 159 159 163 156 150 146 140 130 121 118 119 122 123 122 119 118 115 111 109 103 91 54 24 6 9 18 16 28 63 87 115 136 152 154 147 144 147 151 158 163 158 146 144 146 146 146 144 125 101 110 121 120 119 116
123 128 134 145 152 150 150 152 158 162 162 161 161 165 172 179 185 178 175 181 185 186 184 181 180 182 178 173 170 171 169 162 163 165 158 153 147 143 140 132 128 127 127 131 132 125 120 116 96 79 36 4 11 21 32 63 66 63 79 104 111 124 139 155 163 163 165 162 160 167 171 164 149 144 153 157 149 144 122 102 106 109 113 116 117
116 123 138 148 153 151 156 166 170 168 166 167 166 169 175 184 191 183 176 184 190 190 190 187 186 188 182 175 176 179 175 169 166 166 165 159 151 149 146 141 139 137 138 143 144 134 128 84 345 338 343 353 21 46 113 126 78 81 107 127 129 138 147 167 182 180 174 160 153 162 167 161 147 147 164 168 148 142 127 114 107 99 102 114 119
128 131 139 140 145 157 171 176 175 172 167 170 171 174 181 188 196 192 184 189 192 191 192 192 190 188 184 177 179 185 185 181 176 172 174 170 163 161 156 159 164 158 156 162 175 187 206 294 291 320 354 24 67 77 132 139 87 90 113 126 133 161 172 184 195 189 173 154 149 160 169 170 156 154 165 164 146 140 132 135 127 104 101 114 120
140 136 143 147 152 167 183 182 179 177 171 173 175 176 183 189 196 196 192 194 192 190 192 195 193 189 186 184 187 193 193 190 185 179 182 185 183 178 173 179 187 191 193 193 203 210 222 287 289 320 23 72 102 104 115 116 94 88 100 118 140 180 185 181 187 189 177 163 162 169 177 180 165 158 161 160 155 144 135 144 142 125 117 116 120
141 137 153 168 171 174 182 183 182 182 175 175 175 175 183 187 190 192 194 196 192 191 196 197 193 189 188 192 194 195 196 194 189 187 188 192 193 186 179 185 194 203 209 209 213 216 221 243 254 283 108 108 114 119 95 96 100 90 85 107 139 176 183 179 174 175 175 175 175 174 179 180 166 159 160 164 165 148 136 148 156 156 145 133 126
152 157 163 169 173 174 178 180 181 183 179 176 173 174 182 185 185 188 190 193 192 196 199 197 193 190 192 195 187 186 195 198 194 194 193 191 190 185 184 189 198 206 212 209 204 203 194 187 188 158 132 119 119 115 84 92 106 105 96 101 127 162 169 174 175 172 173 179 177 174 177 176 170 165 160 166 171 156 142 151 165 174 164 153 135
164 166 162 161 168 174 176 176 177 181 181 177 173 174 180 182 184 184 186 190 193 197 198 196 196 195 197 196 187 183 197 205 201 199 195 190 186 187 190 190 192 201 207 202 196 191 170 152 155 145 127 118 118 109 99 107 111 117 113 101 117 152 161 167 179 177 174 174 173 175 177 176 176 171 162 164 175 171 156 153 162 174 181 168 140
162 160 159 160 168 174 177 176 178 181 180 177 175 174 178 181 183 183 185 192 193 194 195 198 202 201 200 199 196 196 204 208 202 196 194 189 184 182 185 183 182 187 193 193 191 183 171 157 144 139 127 117 119 114 115 118 115 124 124 106 113 140 160 166 172 178 175 171 171 175 176 177 179 175 169 169 181 186 170 159 160 172 190 176 149
156 156 159 164 168 173 179 179 179 181 178 177 176 175 177 180 183 184 187 191 189 191 197 203 205 203 203 200 202 205 205 202 194 191 192 185 177 172 174 174 170 171 177 186 189 182 174 169 146 134 126 121 125 123 122 123 122 133 132 118 115 127 150 159 163 174 177 170 169 175 179 181 181 179 179 180 188 193 177 168 166 167 178 171 164
158 156 158 164 165 170 178 180 180 181 178 176 177 176 176 179 183 187 189 189 187 190 198 203 204 206 208 204 204 208 200 193 185 182 180 170 168 168 166 165 162 162 170 178 181 179 170 164 149 136 130 128 132 132 130 128 127 133 133 128 125 128 144 155 157 168 174 172 172 177 181 183 185 185 187 188 191 191 180 179 180 164 163 168 171
161 157 157 163 164 169 177 178 179 181 179 177 177 175 176 180 184 187 187 186 187 189 192 197 202 205 204 201 204 204 192 181 168 165 163 157 160 165 163 162 159 155 162 166 164 165 166 165 151 139 138 135 137 138 135 129 125 129 133 129 128 129 138 152 156 161 170 175 176 178 179 182 186 189 191 193 191 187 183 189 196 172 164 176 176
160 159 161 164 165 170 176 178 178 180 179 179 178 176 178 182 185 185 184 185 188 190 190 193 199 200 192 192 195 188 179 169 156 152 155 156 160 165 164 161 154 145 152 156 152 154 158 163 153 145 146 138 138 142 139 133 126 127 130 128 128 127 131 148 155 159 170 176 177 177 177 179 183 189 195 197 194 191 191 196 202 189 181 188 183
159 162 164 165 165 168 174 177 178 179 179 179 178 176 178 182 183 182 182 185 189 191 190 189 191 187 176 176 176 172 171 164 152 148 158 165 166 164 158 152 144 143 153 152 153 161 161 162 157 150 144 128 131 140 136 130 124 123 125 125 127 126 126 137 145 154 167 174 176 175 177 180 181 186 193 197 196 196 200 201 203 202 202 201 193
162 164 164 166 165 167 170 172 175 177 178 178 177 176 177 179 181 182 182 183 185 186 185 184 178 168 161 161 162 160 160 159 153 153 161 166 160 153 148 150 150 155 161 158 161 173 174 167 160 155 143 123 127 137 135 128 118 111 112 118 123 121 113 112 119 138 162 175 180 179 180 184 184 185 188 193 194 194 199 200 202 209 211 207 200
161 163 164 166 167 169 171 170 172 176 178 178 179 177 176 177 179 180 180 177 177 176 173 171 164 157 155 157 158 152 150 155 155 154 155 153 151 148 155 164 169 173 174 170 168 175 180 175 164 163 150 131 131 139 142 133 116 105 104 106 110 107 99 102 107 116 142 165 177 183 186 187 189 191 188 189 192 190 193 194 197 209 216 210 204
161 163 164 166 170 174 173 172 173 176 178 179 178 177 178 180 177 176 177 175 174 169 159 154 150 147 148 152 154 148 147 149 143 138 137 141 154 156 160 166 168 172 175 175 175 173 177 178 167 165 157 139 138 145 147 137 121 118 116 104 94 92 90 98 109 110 119 138 154 171 183 188 192 195 192 189 193 198 201 206 210 213 217 214 212
162 164 164 166 171 175 175 174 174 176 178 178 178 178 179 180 176 174 173 170 169 162 149 142 139 137 135 138 141 143 145 137 122 118 122 134 155 159 159 165 166 168 174 178 181 176 173 174 170 171 165 147 143 152 156 149 138 131 121 111 97 92 83 83 94 98 108 127 145 158 168 180 191 197 198 192 190 201 212 220 227 233 225 218 223
162 166 168 169 171 174 176 176 175 176 176 175 176 176 176 177 177 177 174 167 164 160 148 140 138 131 127 129 133 139 137 125 116 113 117 130 144 148 145 148 156 161 170 179 186 183 177 175 177 184 179 158 148 160 174 174 157 143 119 108 99 110 104 85 82 72 85 113 128 151 161 171 179 185 191 188 188 204 220 221 234 254 243 230 236
165 171 173 173 172 174 177 176 176 176 175 174 174 174 174 171 168 167 165 159 156 157 153 150 148 141 140 143 141 141 136 127 122 121 125 129 127 128 127 126 134 144 155 171 181 184 181 181 187 195 194 179 163 161 171 177 169 157 136 138 119 103 166 137 110 68 72 103 107 129 150 161 163 163 171 174 176 189 207 207 218 244 235 237 250
171 174 175 175 174 173 175 176 176 177 176 174 174 176 176 166 159 156 154 149 149 153 156 156 156 152 153 159 158 155 148 140 134 132 138 139 126 123 128 126 127 136 140 151 168 180 179 182 192 197 199 200 184 165 161 172 178 182 176 177 221 216 157 142 132 69 82 104 113 130 133 140 145 143 145 141 136 126 129 153 137 130 136 174 241
173 174 173 176 176 174 174 175 177 177 174 174 178 181 176 165 159 157 155 152 151 153 155 153 153 151 146 146 148 150 149 147 146 140 137 141 140 135 136 137 140 147 151 155 164 176 177 179 190 193 194 203 200 178 164 169 180 189 189 206 252 198 158 149 150 144 117 101 112 121 119 127 139 132 125 121 119 114 111 115 107 106 110 110 106
167 169 172 176 177 176 176 176 178 176 172 175 179 179 174 166 163 160 159 158 156 153 151 149 149 149 140 136 138 141 143 145 150 147 135 136 148 149 144 146 150 155 159 162 163 168 171 174 179 185 189 192 206 196 174 170 174 163 149 172 189 166 157 153 145 139 130 109 111 107 106 112 121 121 119 120 123 119 110 107 103 103 107 108 106
161 167 173 176 178 179 179 180 180 175 172 174 173 171 171 169 166 164 161 160 157 154 152 149 150 150 142 139 141 139 135 133 141 149 142 133 143 155 152 152 156 157 156 157 160 163 163 162 163 170 175 174 191 201 183 173 172 159 143 143 148 149 147 138 134 131 125 129 130 120 117 112 110 113 118 121 118 114 110 107 107 107 108 108 108
159 169 175 179 181 183 183 184 182 176 173 172 168 168 170 170 168 165 161 158 157 156 155 153 154 153 147 147 148 144 141 140 139 142 140 127 131 150 153 151 153 152 148 152 153 153 154 153 154 160 164 165 171 184 179 172 172 164 152 150 151 150 143 133 135 133 126 120 122 141 138 124 112 109 114 119 118 117 115 113 113 114 114 114 115
166 174 178 182 184 186 185 185 182 177 174 172 170 169 169 170 169 165 162 160 158 158 157 157 158 156 153 148 145 147 153 155 151 145 140 130 130 146 150 143 139 135 132 140 147 148 150 149 151 156 158 159 158 160 162 164 171 170 166 166 164 162 160 160 157 150 141 132 131 136 133 125 116 114 119 118 113 112 110 111 113 114 117 118 118